Flag for U.S.A. Weather past 2 weeks in Huntington Beach, California, U.S.A.

Now
81 °F

Sunny.


Feels Like: 81 °F
Forecast: 64 / 72 °F
Wind: 6 mph from Southwest

Location: John Wayne Airport-Orange County Airport

Current Time: Oct 24, 2014 at 5:15:36 PM

Latest Report: Oct 24, 2014 at 4:53 PM


Visibility: 10 mi

Pressure: 29.92 "Hg

Humidity: 47%

Dew point: 59 °F

Location of Huntington BeachLocation

Historic Weather in Huntington Beach — Graph

°F

Huntington Beach temperature yesterday

Maximum temperature yesterday: 85 °F (at 2:53 PM)
Minimum temperature yesterday: 63 °F (at 4:53 AM)
Average temperature yesterday: 72 °F

Past Weeks' High & Low Weather Summary

 TemperatureHumidityPressure
High86 °F (Oct 24, 12:53 PM)83% (Oct 22, 5:58 AM)30.01 "Hg (Oct 22, 5:58 AM)
Low63 °F (Oct 22, 5:58 AM)23% (Oct 24, 12:53 PM)29.83 "Hg (Oct 19, 4:53 PM)
Average72 °F65%29.92 "Hg
* Reported Oct 9 3:53 PM — Oct 24 3:53 PM, Huntington Beach, Weather by CustomWeather, © 2014

Note: Actual official high and low records may vary slightly from our data, if they occured in-between our weather recording intervals... More about our weather records

Advertising

Huntington Beach weather history for previous 24 hours

 ConditionsComfort  
Time TempWeatherWind HumidityBarometerVisibility
3:53 PM
Oct 24
82 °FSunny.5 mph38%29.92 "Hg10 mi
2:53 PM82 °FSunny.8 mph35%29.92 "Hg10 mi
1:53 PM84 °FSunny.12 mph31%29.93 "Hg10 mi
12:53 PM86 °FSunny.7 mph23%29.94 "Hg10 mi
11:53 AM84 °FSunny.8 mph29%29.97 "Hg10 mi
10:53 AM81 °FSunny.No wind35%29.98 "Hg10 mi
9:53 AM76 °FSunny.No wind48%29.98 "Hg10 mi
8:53 AM70 °FSunny.No wind64%29.98 "Hg10 mi
7:53 AM65 °FClear.No wind70%29.98 "Hg10 mi
6:53 AM63 °FPassing clouds.3 mph73%29.96 "Hg10 mi
5:53 AM63 °FClear.No wind73%29.94 "Hg10 mi
4:53 AM63 °FClear.No wind70%29.94 "Hg10 mi
3:53 AM64 °FClear.No wind68%29.94 "Hg10 mi
2:53 AM65 °FClear.No wind70%29.95 "Hg10 mi
1:53 AM66 °FPassing clouds.No wind68%29.96 "Hg10 mi
12:53 AM67 °FClear.No wind63%29.96 "Hg10 mi
11:53 PM
Oct 23
68 °FClear.No wind61%29.95 "Hg10 mi
10:53 PM70 °FPassing clouds.No wind55%29.95 "Hg10 mi
9:53 PM71 °FPassing clouds.No wind55%29.94 "Hg10 mi
8:53 PM72 °FPassing clouds.No wind68%29.93 "Hg10 mi
7:53 PM72 °FClear.5 mph68%29.93 "Hg10 mi
6:53 PM75 °FSunny.3 mph52%29.91 "Hg10 mi
5:53 PM77 °FSunny.8 mph50%29.90 "Hg10 mi
Weather by CustomWeather, © 2014

See weather overviewHow to use our weather pages